Weather History for De Queen, AR

Change the Weather History Date:

Tuesday, November 20, 2012

  Actual Average Record
Temperature  
Mean Temperature 59 °F 50 °F  
Max Temperature 78 °F 63 °F 80 °F (2011)
Min Temperature 40 °F 37 °F 19 °F (1951)
Degree Days  
Heating Degree Days 6 15  
Month to date heating degree days 223 221  
Since 1 July heating degree days 395 354  
Cooling Degree Days 0 0  
Month to date cooling degree days 2 5  
Year to date cooling degree days 2171 1939  
Growing Degree Days 11 (Base 50)    
Moisture  
Dew Point 46 °F    
Average Humidity 64    
Maximum Humidity 93    
Minimum Humidity 35    
Precipitation  
Precipitation 0.00 in 0.16 in 1.95 in (1988)
Month to date precipitation 0.01 3.43  
Year to date precipitation 24.09 43.15  
Snow  
Snow 0.00 in - - ()
Month to date snowfall 0.0  
Since 1 July snowfall 0.0  
Since 1 September snowfall 0.0  
Snow Depth 0.00 in    
Sea Level Pressure  
Sea Level Pressure 30.16 in    
Wind  
Wind Speed 2 mph (East)    
Max Wind Speed 10 mph    
Max Gust Speed 13 mph    
Visibility 6 miles    
Events Fog    
T = Trace of Precipitation, MM = Missing Value Source: NWS Daily Summary

Daily Weather History Graph

Daily Weather History Graph

Search for Another Location

Airport:

Trip Planner

Search our weather history database for the weather conditions in past years. The results will help you decide how hot, cold, wet, or windy it might be!

Date:

Astronomy

Nov. 20, 2012 Rise Set
Actual Time 6:55 AM CST 5:11 PM CST
Civil Twilight 6:28 AM CST 5:37 PM CST
Nautical Twilight 5:58 AM CST 6:08 PM CST
Astronomical Twilight 5:28 AM CST 6:38 PM CST
Moon 12:39 PM CST (11/20) No Moon Set
Length of Visible Light 11h 09m
Length of Day
10h 15m
First Quarter, 51% of the Moon is Illuminated
Nov 20
First Quarter
Nov 28
Full
Dec 6
Last Quarter
Dec 13
New
Dec 19
First Quarter

Hourly Weather History & Observations

Time (CST) Temp. Windchill Dew Point Humidity Pressure Visibility Wind Dir Wind Speed Gust Speed Precip Events Conditions
12:53 AM 51.1 °F - 45.0 °F 80% 30.15 in 8.0 mi ESE 3.5 mph - N/A   Mostly Cloudy
1:53 AM 48.9 °F - 44.1 °F 83% 30.16 in 9.0 mi East 3.5 mph - N/A   Mostly Cloudy
2:53 AM 51.1 °F - 46.0 °F 83% 30.17 in 8.0 mi Calm Calm - N/A   Overcast
3:53 AM 46.9 °F - 45.0 °F 93% 30.16 in 8.0 mi East 3.5 mph - N/A   Partly Cloudy
4:53 AM 45.0 °F 43.5 °F 43.0 °F 93% 30.17 in 6.0 mi ENE 3.5 mph - N/A   Mostly Cloudy
5:53 AM 50.0 °F - 45.0 °F 83% 30.17 in 8.0 mi ENE 3.5 mph - N/A   Overcast
6:53 AM 51.1 °F - 46.0 °F 83% 30.18 in 7.0 mi Calm Calm - N/A   Overcast
7:53 AM 53.1 °F - 46.0 °F 77% 30.19 in 6.0 mi Calm Calm - N/A   Haze
8:53 AM 57.0 °F - 46.0 °F 67% 30.20 in 7.0 mi Calm Calm - N/A   Scattered Clouds
9:53 AM 64.9 °F - 45.0 °F 48% 30.19 in 8.0 mi Calm Calm - N/A   Clear
10:53 AM 70.0 °F - 45.0 °F 41% 30.18 in 9.0 mi WSW 4.6 mph - N/A   Clear
11:53 AM 73.0 °F - 48.0 °F 41% 30.16 in 10.0 mi West 3.5 mph - N/A   Clear
12:53 PM 75.9 °F - 50.0 °F 40% 30.13 in 10.0 mi Calm Calm - N/A   Clear
1:53 PM 78.1 °F - 51.1 °F 39% 30.10 in 10.0 mi SW 9.2 mph - N/A   Clear
2:53 PM 78.1 °F - 48.9 °F 36% 30.09 in 8.0 mi Calm Calm - N/A   Clear
3:53 PM 77.0 °F - 48.9 °F 37% 30.09 in 9.0 mi NW 5.8 mph - N/A   Clear
4:53 PM 71.1 °F - 50.0 °F 47% 30.09 in 8.0 mi WSW 4.6 mph - N/A   Clear
5:53 PM 64.0 °F - 51.1 °F 63% 30.11 in 10.0 mi Calm Calm - N/A   Clear
6:53 PM 55.0 °F - 48.9 °F 80% 30.13 in 9.0 mi Calm Calm - N/A   Clear
7:53 PM 54.0 °F - 48.9 °F 83% 30.15 in 8.0 mi Calm Calm - N/A   Clear
8:53 PM 48.9 °F - 46.9 °F 93% 30.17 in 7.0 mi Calm Calm - N/A   Clear
9:49 PM 48.2 °F - 46.4 °F 93% 30.18 in 2.0 mi Calm Calm - N/A   Clear
9:53 PM 48.9 °F - 46.9 °F 93% 30.17 in 2.5 mi Calm Calm - N/A   Clear
10:00 PM 48.0 °F - 46.9 °F 96% 30.18 in 6.0 mi Calm Calm - N/A   Clear
10:26 PM 45.0 °F - 44.1 °F 97% 30.18 in 1.5 mi Calm Calm - N/A   Clear
10:38 PM 46.0 °F - 45.0 °F 96% 30.19 in 3.0 mi Calm Calm - N/A   Clear
10:53 PM 46.0 °F - 44.1 °F 93% 30.18 in 8.0 mi Calm Calm - N/A   Clear
11:00 PM 44.1 °F - 43.0 °F 96% 30.19 in 1.5 mi Calm Calm - N/A   Clear
11:09 PM 44.1 °F - 43.0 °F 96% 30.19 in 0.2 mi Calm Calm - N/A Fog Fog
11:31 PM 45.0 °F - 44.1 °F 97% 30.19 in 0.5 mi Calm Calm - N/A Fog Fog
11:53 PM 41.0 °F 39.0 °F 39.9 °F 96% 30.18 in 0.2 mi ENE 3.5 mph - N/A Fog Fog